Tracking 25648 objects as of 17-May-2022
HD Live streaming from Space Station
objects crossing your sky now

FLOCK 3K 5

Track FLOCK 3K 5 now!
10-day predictions
FLOCK 3K 5 is classified as:


NORAD ID: 43899
Int'l Code: 2018-111Z
Perigee: 453.9 km
Apogee: 476.6 km
Inclination: 97.2 °
Period: 93.8 minutes
Semi major axis: 6836 km
RCS: Unknown
Launch date: December 27, 2018
Source: United States (US)
Launch site: VOSTOCHNY COSMODROME (VOSTO)
aabbcc
Your satellite tracking list
Your tracking list is empty




NASA's NSSDC Master Catalog

Two Line Element Set (TLE):
1 43899U 18111Z   22136.21338910  .00010525  00000-0  30157-3 0  9998
2 43899  97.1987  27.5265 0016633 173.5791 186.5670 15.35950389188621
Source of the keplerian elements: AFSPC